Find Starlink 6181

NORAD ID: 56888 Int'l Des: 2023-083 Owner: SPXS Country: US Constellation: starlink operational
LEOCIRCULAR

实时位置

正在加载3D地球...

关于 Starlink 6181

正在加载描述...

即将过境

Passes for default location (London). Set your location on the main map for personalized predictions.

高度历史

Loading altitude history...

两行轨道根数

1 56888U 23083N 26126.25002315 -.00004012 00000-0 -13637-3 0 9998
2 56888 43.0010 123.7112 0000991 267.0648 14.9205 15.27574363 5711
Epoch: May 6, 2026 • Age: 10 hours

当前状态

高度 489.6 km
速度 7.62 km/s
星下点 -27.21°S, 9.91°W
发射日期 Jun 12, 2023
运行时间 2.8 years
类型 internet

技术详情

分类 Payload
质量 305.00 kg
干质量 290.00 kg
总质量 305.00 kg
长度 0.20 m
直径 2.80 m
跨度 9.00 m
形状 Box + pan
制造商 SPXS
平台类型 Starlink
阶段状态 In Orbit
所有者/国家 SPXS/US

Most Searched